iso_date,Year,Hour,Min,DOY,POS_DOY,Lat,Lon,BP,Ts,Ta,has_bp,has_ts,has_ta,BuoyID,Buoy_Type,Buoy_Owner,Logistics,Hemisphere
2022-07-06T13:00:02Z,2022,13,0,187.5417,187.5417,78.9924,7.7812,1011.5,9.44,-999.0,yes,yes,no,300534062836780,GPS_Tracker,AWI,Polarstern,North
2022-07-06T13:59:57Z,2022,14,0,187.5833,187.5833,79.006,7.951,1011.7,9.72,-999.0,yes,yes,no,300534062836780,GPS_Tracker,AWI,Polarstern,North
2022-07-06T15:00:00Z,2022,15,0,187.625,187.625,79.0024,7.8121,1011.7,9.43,-999.0,yes,yes,no,300534062836780,GPS_Tracker,AWI,Polarstern,North
2022-07-06T16:00:02Z,2022,16,0,187.6667,187.6667,78.9955,8.3362,1011.0,9.18,-999.0,yes,yes,no,300534062836780,GPS_Tracker,AWI,Polarstern,North
2022-07-06T16:59:57Z,2022,17,0,187.7083,187.7083,79.0114,8.268,1011.0,9.64,-999.0,yes,yes,no,300534062836780,GPS_Tracker,AWI,Polarstern,North
2022-07-06T18:00:00Z,2022,18,0,187.75,187.75,78.9824,7.9383,1011.2,9.36,-999.0,yes,yes,no,300534062836780,GPS_Tracker,AWI,Polarstern,North
2022-07-06T19:00:02Z,2022,19,0,187.7917,187.7917,78.9981,7.8996,1011.2,9.23,-999.0,yes,yes,no,300534062836780,GPS_Tracker,AWI,Polarstern,North
2022-07-06T19:59:57Z,2022,20,0,187.8333,187.8333,78.9828,7.9538,1011.1,9.47,-999.0,yes,yes,no,300534062836780,GPS_Tracker,AWI,Polarstern,North
2022-07-06T21:00:00Z,2022,21,0,187.875,187.875,78.987,7.9318,1011.2,9.0,-999.0,yes,yes,no,300534062836780,GPS_Tracker,AWI,Polarstern,North
2022-07-06T22:00:02Z,2022,22,0,187.9167,187.9167,78.9744,8.4682,1010.5,8.75,-999.0,yes,yes,no,300534062836780,GPS_Tracker,AWI,Polarstern,North
2022-07-06T22:59:57Z,2022,23,0,187.9583,187.9583,78.9826,8.9999,1010.5,8.77,-999.0,yes,yes,no,300534062836780,GPS_Tracker,AWI,Polarstern,North
2022-07-07T00:00:00Z,2022,0,0,188.0,188.0,78.9818,8.6918,1010.3,8.98,-999.0,yes,yes,no,300534062836780,GPS_Tracker,AWI,Polarstern,North
2022-07-07T01:00:02Z,2022,1,0,188.0417,188.0417,78.984,8.4756,1010.3,9.12,-999.0,yes,yes,no,300534062836780,GPS_Tracker,AWI,Polarstern,North
2022-07-07T01:59:57Z,2022,2,0,188.0833,188.0833,78.9831,8.0146,1010.2,9.13,-999.0,yes,yes,no,300534062836780,GPS_Tracker,AWI,Polarstern,North
2022-07-07T03:00:00Z,2022,3,0,188.125,188.125,78.9829,7.4302,1010.3,10.44,-999.0,yes,yes,no,300534062836780,GPS_Tracker,AWI,Polarstern,North
2022-07-07T04:00:02Z,2022,4,0,188.1667,188.1667,78.9834,7.4303,1010.2,9.36,-999.0,yes,yes,no,300534062836780,GPS_Tracker,AWI,Polarstern,North
2022-07-07T04:59:57Z,2022,5,0,188.2083,188.2083,78.9791,6.9945,1010.1,9.71,-999.0,yes,yes,no,300534062836780,GPS_Tracker,AWI,Polarstern,North
2022-07-07T06:00:00Z,2022,6,0,188.25,188.25,79.0003,6.9993,1010.4,9.53,-999.0,yes,yes,no,300534062836780,GPS_Tracker,AWI,Polarstern,North
2022-07-07T07:00:02Z,2022,7,0,188.2917,188.2917,78.9996,6.9977,1010.3,9.34,-999.0,yes,yes,no,300534062836780,GPS_Tracker,AWI,Polarstern,North
2022-07-07T07:59:57Z,2022,8,0,188.3333,188.3333,78.9999,6.9978,1010.5,10.2,-999.0,yes,yes,no,300534062836780,GPS_Tracker,AWI,Polarstern,North
2022-07-07T09:00:00Z,2022,9,0,188.375,188.375,79.0012,7.0039,1010.9,13.6,-999.0,yes,yes,no,300534062836780,GPS_Tracker,AWI,Polarstern,North
2022-07-07T10:00:02Z,2022,10,0,188.4167,188.4167,79.0335,7.0091,1011.0,14.79,-999.0,yes,yes,no,300534062836780,GPS_Tracker,AWI,Polarstern,North
2022-07-07T10:59:57Z,2022,11,0,188.4583,188.4583,79.0116,7.0322,1011.2,13.72,-999.0,yes,yes,no,300534062836780,GPS_Tracker,AWI,Polarstern,North
2022-07-07T12:00:00Z,2022,12,0,188.5,188.5,79.0117,7.0329,1011.2,16.66,-999.0,yes,yes,no,300534062836780,GPS_Tracker,AWI,Polarstern,North
2022-07-07T13:00:02Z,2022,13,0,188.5417,188.5417,78.9999,6.6626,1011.3,13.74,-999.0,yes,yes,no,300534062836780,GPS_Tracker,AWI,Polarstern,North
2022-07-07T13:59:57Z,2022,14,0,188.5833,188.5833,79.0112,6.0217,1011.5,12.38,-999.0,yes,yes,no,300534062836780,GPS_Tracker,AWI,Polarstern,North
2022-07-07T15:00:00Z,2022,15,0,188.625,188.625,78.9998,5.666,1011.8,11.88,-999.0,yes,yes,no,300534062836780,GPS_Tracker,AWI,Polarstern,North
2022-07-07T16:00:02Z,2022,16,0,188.6667,188.6667,78.9999,5.6659,1011.7,11.85,-999.0,yes,yes,no,300534062836780,GPS_Tracker,AWI,Polarstern,North
2022-07-07T16:59:57Z,2022,17,0,188.7083,188.7083,78.9654,5.9169,1011.6,11.8,-999.0,yes,yes,no,300534062836780,GPS_Tracker,AWI,Polarstern,North
2022-07-07T18:00:00Z,2022,18,0,188.75,188.75,78.9282,6.0188,1011.8,11.22,-999.0,yes,yes,no,300534062836780,GPS_Tracker,AWI,Polarstern,North
2022-07-07T19:00:02Z,2022,19,0,188.7917,188.7917,78.8795,6.3571,1011.7,10.7,-999.0,yes,yes,no,300534062836780,GPS_Tracker,AWI,Polarstern,North
2022-07-07T19:59:57Z,2022,20,0,188.8333,188.8333,78.8962,6.8925,1011.7,10.57,-999.0,yes,yes,no,300534062836780,GPS_Tracker,AWI,Polarstern,North
2022-07-07T21:00:00Z,2022,21,0,188.875,188.875,78.9827,6.9102,1012.0,10.29,-999.0,yes,yes,no,300534062836780,GPS_Tracker,AWI,Polarstern,North
2022-07-07T22:00:02Z,2022,22,0,188.9167,188.9167,78.9827,6.9073,1012.1,10.39,-999.0,yes,yes,no,300534062836780,GPS_Tracker,AWI,Polarstern,North
2022-07-07T22:59:57Z,2022,23,0,188.9583,188.9583,78.9822,6.8451,1012.3,10.43,-999.0,yes,yes,no,300534062836780,GPS_Tracker,AWI,Polarstern,North
2022-07-08T00:00:00Z,2022,0,0,189.0,189.0,78.983,6.3842,1012.5,10.13,-999.0,yes,yes,no,300534062836780,GPS_Tracker,AWI,Polarstern,North
2022-07-08T01:00:02Z,2022,1,0,189.0417,189.0417,78.9827,6.3837,1012.6,10.02,-999.0,yes,yes,no,300534062836780,GPS_Tracker,AWI,Polarstern,North
2022-07-08T01:59:57Z,2022,2,0,189.0833,189.0833,78.9795,5.9026,1012.8,9.96,-999.0,yes,yes,no,300534062836780,GPS_Tracker,AWI,Polarstern,North
2022-07-08T03:00:00Z,2022,3,0,189.125,189.125,78.9832,5.8623,1012.7,9.88,-999.0,yes,yes,no,300534062836780,GPS_Tracker,AWI,Polarstern,North
2022-07-08T04:00:02Z,2022,4,0,189.1667,189.1667,78.983,5.8628,1012.8,10.01,-999.0,yes,yes,no,300534062836780,GPS_Tracker,AWI,Polarstern,North
2022-07-08T04:59:57Z,2022,5,0,189.2083,189.2083,79.0441,6.0172,1012.8,10.23,-999.0,yes,yes,no,300534062836780,GPS_Tracker,AWI,Polarstern,North
2022-07-08T06:00:00Z,2022,6,0,189.25,189.25,79.1634,6.3847,1012.7,9.69,-999.0,yes,yes,no,300534062836780,GPS_Tracker,AWI,Polarstern,North
2022-07-08T07:00:02Z,2022,7,0,189.2917,189.2917,79.177,6.3506,1012.7,9.8,-999.0,yes,yes,no,300534062836780,GPS_Tracker,AWI,Polarstern,North
2022-07-08T07:59:57Z,2022,8,0,189.3333,189.3333,79.1787,6.2804,1012.8,9.56,-999.0,yes,yes,no,300534062836780,GPS_Tracker,AWI,Polarstern,North
2022-07-08T09:00:00Z,2022,9,0,189.375,189.375,79.1664,6.3351,1013.0,9.78,-999.0,yes,yes,no,300534062836780,GPS_Tracker,AWI,Polarstern,North
2022-07-08T10:00:02Z,2022,10,0,189.4167,189.4167,79.1435,6.565,1013.0,10.08,-999.0,yes,yes,no,300534062836780,GPS_Tracker,AWI,Polarstern,North
2022-07-08T10:59:57Z,2022,11,0,189.4583,189.4583,79.0682,7.3198,1013.2,9.51,-999.0,yes,yes,no,300534062836780,GPS_Tracker,AWI,Polarstern,North
2022-07-08T12:00:00Z,2022,12,0,189.5,189.5,79.0007,7.9996,1013.1,9.33,-999.0,yes,yes,no,300534062836780,GPS_Tracker,AWI,Polarstern,North
2022-07-08T13:00:02Z,2022,13,0,189.5417,189.5417,79.0001,8.0016,1013.0,9.38,-999.0,yes,yes,no,300534062836780,GPS_Tracker,AWI,Polarstern,North
2022-07-08T13:59:57Z,2022,14,0,189.5833,189.5833,78.9973,8.1393,1013.1,9.2,-999.0,yes,yes,no,300534062836780,GPS_Tracker,AWI,Polarstern,North
2022-07-08T15:00:00Z,2022,15,0,189.625,189.625,78.9998,8.3334,1013.1,9.15,-999.0,yes,yes,no,300534062836780,GPS_Tracker,AWI,Polarstern,North
2022-07-08T16:00:02Z,2022,16,0,189.6667,189.6667,79.0015,8.3016,1013.0,9.16,-999.0,yes,yes,no,300534062836780,GPS_Tracker,AWI,Polarstern,North
2022-07-08T16:59:57Z,2022,17,0,189.7083,189.7083,78.9949,7.4425,1013.1,8.57,-999.0,yes,yes,no,300534062836780,GPS_Tracker,AWI,Polarstern,North
2022-07-08T18:00:00Z,2022,18,0,189.75,189.75,78.9789,7.1299,1013.2,8.5,-999.0,yes,yes,no,300534062836780,GPS_Tracker,AWI,Polarstern,North
2022-07-08T19:00:02Z,2022,19,0,189.7917,189.7917,78.9569,7.1369,1013.2,8.7,-999.0,yes,yes,no,300534062836780,GPS_Tracker,AWI,Polarstern,North
2022-07-08T19:59:57Z,2022,20,0,189.8333,189.8333,78.9966,6.3462,1013.4,8.33,-999.0,yes,yes,no,300534062836780,GPS_Tracker,AWI,Polarstern,North
2022-07-08T21:00:00Z,2022,21,0,189.875,189.875,79.0284,5.4885,1013.4,7.83,-999.0,yes,yes,no,300534062836780,GPS_Tracker,AWI,Polarstern,North
2022-07-08T22:00:02Z,2022,22,0,189.9167,189.9167,79.0529,4.6513,1013.5,7.38,-999.0,yes,yes,no,300534062836780,GPS_Tracker,AWI,Polarstern,North
2022-07-08T22:59:57Z,2022,23,0,189.9583,189.9583,79.0637,4.1916,1013.6,7.33,-999.0,yes,yes,no,300534062836780,GPS_Tracker,AWI,Polarstern,North
2022-07-09T00:00:00Z,2022,0,0,190.0,190.0,79.0637,4.1909,1013.5,7.79,-999.0,yes,yes,no,300534062836780,GPS_Tracker,AWI,Polarstern,North
2022-07-09T01:00:02Z,2022,1,0,190.0417,190.0417,79.0639,4.1923,1013.4,8.04,-999.0,yes,yes,no,300534062836780,GPS_Tracker,AWI,Polarstern,North
2022-07-09T01:59:57Z,2022,2,0,190.0833,190.0833,79.0637,4.1914,1013.3,9.68,-999.0,yes,yes,no,300534062836780,GPS_Tracker,AWI,Polarstern,North
2022-07-09T03:00:00Z,2022,3,0,190.125,190.125,79.0637,4.1911,1013.1,10.31,-999.0,yes,yes,no,300534062836780,GPS_Tracker,AWI,Polarstern,North
2022-07-09T04:00:02Z,2022,4,0,190.1667,190.1667,79.0638,4.1906,1012.9,10.76,-999.0,yes,yes,no,300534062836780,GPS_Tracker,AWI,Polarstern,North
2022-07-09T04:59:57Z,2022,5,0,190.2083,190.2083,79.0637,4.1903,1012.9,10.95,-999.0,yes,yes,no,300534062836780,GPS_Tracker,AWI,Polarstern,North
2022-07-09T06:00:00Z,2022,6,0,190.25,190.25,79.0641,4.1888,1012.9,11.08,-999.0,yes,yes,no,300534062836780,GPS_Tracker,AWI,Polarstern,North
2022-07-09T07:00:02Z,2022,7,0,190.2917,190.2917,79.0685,4.1773,1013.0,10.99,-999.0,yes,yes,no,300534062836780,GPS_Tracker,AWI,Polarstern,North
2022-07-09T07:59:57Z,2022,8,0,190.3333,190.3333,79.0029,4.3595,1013.2,10.19,-999.0,yes,yes,no,300534062836780,GPS_Tracker,AWI,Polarstern,North
2022-07-09T09:00:00Z,2022,9,0,190.375,190.375,79.0008,4.3619,1013.2,10.44,-999.0,yes,yes,no,300534062836780,GPS_Tracker,AWI,Polarstern,North
2022-07-09T10:00:02Z,2022,10,0,190.4167,190.4167,79.0002,4.3879,1013.1,10.45,-999.0,yes,yes,no,300534062836780,GPS_Tracker,AWI,Polarstern,North
2022-07-09T10:59:57Z,2022,11,0,190.4583,190.4583,79.0001,4.3959,1013.1,10.43,-999.0,yes,yes,no,300534062836780,GPS_Tracker,AWI,Polarstern,North
2022-07-09T12:00:00Z,2022,12,0,190.5,190.5,79.0,4.3352,1013.1,10.3,-999.0,yes,yes,no,300534062836780,GPS_Tracker,AWI,Polarstern,North
2022-07-09T13:00:02Z,2022,13,0,190.5417,190.5417,78.9997,4.3358,1013.2,9.76,-999.0,yes,yes,no,300534062836780,GPS_Tracker,AWI,Polarstern,North
2022-07-09T13:59:57Z,2022,14,0,190.5833,190.5833,78.9999,4.3349,1013.1,9.21,-999.0,yes,yes,no,300534062836780,GPS_Tracker,AWI,Polarstern,North
2022-07-09T15:00:00Z,2022,15,0,190.625,190.625,79.0,4.3349,1013.0,8.89,-999.0,yes,yes,no,300534062836780,GPS_Tracker,AWI,Polarstern,North
2022-07-09T16:00:02Z,2022,16,0,190.6667,190.6667,79.0163,4.3381,1012.7,8.6,-999.0,yes,yes,no,300534062836780,GPS_Tracker,AWI,Polarstern,North
2022-07-09T16:59:57Z,2022,17,0,190.7083,190.7083,78.9969,4.6896,1012.7,8.3,-999.0,yes,yes,no,300534062836780,GPS_Tracker,AWI,Polarstern,North
2022-07-09T18:00:00Z,2022,18,0,190.75,190.75,78.9833,4.8183,1012.7,8.15,-999.0,yes,yes,no,300534062836780,GPS_Tracker,AWI,Polarstern,North
2022-07-09T19:00:02Z,2022,19,0,190.7917,190.7917,78.9832,4.8187,1012.6,7.97,-999.0,yes,yes,no,300534062836780,GPS_Tracker,AWI,Polarstern,North
2022-07-09T19:59:57Z,2022,20,0,190.8333,190.8333,78.9831,4.8155,1012.4,7.69,-999.0,yes,yes,no,300534062836780,GPS_Tracker,AWI,Polarstern,North
2022-07-09T21:00:00Z,2022,21,0,190.875,190.875,78.9833,4.8186,1012.5,7.58,-999.0,yes,yes,no,300534062836780,GPS_Tracker,AWI,Polarstern,North
2022-07-09T22:00:02Z,2022,22,0,190.9167,190.9167,78.9832,4.818,1012.4,7.41,-999.0,yes,yes,no,300534062836780,GPS_Tracker,AWI,Polarstern,North
2022-07-09T22:59:57Z,2022,23,0,190.9583,190.9583,78.983,5.3402,1012.5,7.2,-999.0,yes,yes,no,300534062836780,GPS_Tracker,AWI,Polarstern,North
2022-07-10T00:00:00Z,2022,0,0,191.0,191.0,78.9832,5.3403,1012.3,7.28,-999.0,yes,yes,no,300534062836780,GPS_Tracker,AWI,Polarstern,North
2022-07-10T01:00:02Z,2022,1,0,191.0417,191.0417,78.9833,5.3404,1012.5,7.21,-999.0,yes,yes,no,300534062836780,GPS_Tracker,AWI,Polarstern,North
2022-07-10T01:59:57Z,2022,2,0,191.0833,191.0833,78.9917,5.8294,1012.3,7.03,-999.0,yes,yes,no,300534062836780,GPS_Tracker,AWI,Polarstern,North
2022-07-10T03:00:00Z,2022,3,0,191.125,191.125,78.9995,6.2662,1012.2,6.88,-999.0,yes,yes,no,300534062836780,GPS_Tracker,AWI,Polarstern,North
2022-07-10T04:00:02Z,2022,4,0,191.1667,191.1667,79.0153,6.6951,1012.1,6.94,-999.0,yes,yes,no,300534062836780,GPS_Tracker,AWI,Polarstern,North
2022-07-10T04:59:57Z,2022,5,0,191.2083,191.2083,79.0268,7.0284,1012.1,6.95,-999.0,yes,yes,no,300534062836780,GPS_Tracker,AWI,Polarstern,North
2022-07-10T06:00:00Z,2022,6,0,191.25,191.25,79.0117,6.9645,1012.0,7.13,-999.0,yes,yes,no,300534062836780,GPS_Tracker,AWI,Polarstern,North
2022-07-10T07:00:02Z,2022,7,0,191.2917,191.2917,79.0117,6.9664,1011.8,7.5,-999.0,yes,yes,no,300534062836780,GPS_Tracker,AWI,Polarstern,North
2022-07-10T07:59:57Z,2022,8,0,191.3333,191.3333,79.0118,6.9645,1011.7,7.78,-999.0,yes,yes,no,300534062836780,GPS_Tracker,AWI,Polarstern,North
2022-07-10T09:00:00Z,2022,9,0,191.375,191.375,79.1028,6.6467,1011.7,7.74,-999.0,yes,yes,no,300534062836780,GPS_Tracker,AWI,Polarstern,North
2022-07-10T10:00:02Z,2022,10,0,191.4167,191.4167,79.2422,6.1563,1011.5,7.53,-999.0,yes,yes,no,300534062836780,GPS_Tracker,AWI,Polarstern,North
2022-07-10T10:59:57Z,2022,11,0,191.4583,191.4583,79.3873,5.6389,1011.1,7.66,-999.0,yes,yes,no,300534062836780,GPS_Tracker,AWI,Polarstern,North
2022-07-10T12:00:00Z,2022,12,0,191.5,191.5,79.5315,5.1179,1010.9,7.48,-999.0,yes,yes,no,300534062836780,GPS_Tracker,AWI,Polarstern,North
2022-07-10T13:00:02Z,2022,13,0,191.5417,191.5417,79.6724,4.6009,1010.4,7.16,-999.0,yes,yes,no,300534062836780,GPS_Tracker,AWI,Polarstern,North
2022-07-10T13:59:57Z,2022,14,0,191.5833,191.5833,79.7213,4.4222,1010.1,6.72,-999.0,yes,yes,no,300534062836780,GPS_Tracker,AWI,Polarstern,North
2022-07-10T15:00:00Z,2022,15,0,191.625,191.625,79.7211,4.4217,1010.0,6.71,-999.0,yes,yes,no,300534062836780,GPS_Tracker,AWI,Polarstern,North
2022-07-10T16:00:02Z,2022,16,0,191.6667,191.6667,79.7212,4.4216,1009.9,6.73,-999.0,yes,yes,no,300534062836780,GPS_Tracker,AWI,Polarstern,North
2022-07-10T16:59:57Z,2022,17,0,191.7083,191.7083,79.7211,4.4217,1009.7,6.44,-999.0,yes,yes,no,300534062836780,GPS_Tracker,AWI,Polarstern,North
2022-07-10T18:00:00Z,2022,18,0,191.75,191.75,79.721,4.42,1009.4,6.06,-999.0,yes,yes,no,300534062836780,GPS_Tracker,AWI,Polarstern,North
2022-07-10T19:00:02Z,2022,19,0,191.7917,191.7917,79.7214,4.4238,1009.4,6.0,-999.0,yes,yes,no,300534062836780,GPS_Tracker,AWI,Polarstern,North
2022-07-10T19:59:57Z,2022,20,0,191.8333,191.8333,79.7212,4.4228,1009.4,5.77,-999.0,yes,yes,no,300534062836780,GPS_Tracker,AWI,Polarstern,North
2022-07-10T21:00:00Z,2022,21,0,191.875,191.875,79.7212,4.4214,1009.4,5.55,-999.0,yes,yes,no,300534062836780,GPS_Tracker,AWI,Polarstern,North
2022-07-10T22:00:02Z,2022,22,0,191.9167,191.9167,79.721,4.4229,1009.2,5.32,-999.0,yes,yes,no,300534062836780,GPS_Tracker,AWI,Polarstern,North
2022-07-10T22:59:57Z,2022,23,0,191.9583,191.9583,79.7218,4.4265,1009.4,5.12,-999.0,yes,yes,no,300534062836780,GPS_Tracker,AWI,Polarstern,North
2022-07-11T00:00:00Z,2022,0,0,192.0,192.0,79.7185,4.4381,1009.3,4.8,-999.0,yes,yes,no,300534062836780,GPS_Tracker,AWI,Polarstern,North
2022-07-11T01:00:02Z,2022,1,0,192.0417,192.0417,79.7471,4.6717,1009.3,4.56,-999.0,yes,yes,no,300534062836780,GPS_Tracker,AWI,Polarstern,North
2022-07-11T01:59:57Z,2022,2,0,192.0833,192.0833,79.8242,5.4178,1009.3,4.41,-999.0,yes,yes,no,300534062836780,GPS_Tracker,AWI,Polarstern,North
2022-07-11T03:00:00Z,2022,3,0,192.125,192.125,79.8946,6.2869,1009.3,4.63,-999.0,yes,yes,no,300534062836780,GPS_Tracker,AWI,Polarstern,North
2022-07-11T04:00:02Z,2022,4,0,192.1667,192.1667,79.9895,7.1,1009.1,4.66,-999.0,yes,yes,no,300534062836780,GPS_Tracker,AWI,Polarstern,North
2022-07-11T04:59:57Z,2022,5,0,192.2083,192.2083,80.0818,7.9524,1009.0,4.75,-999.0,yes,yes,no,300534062836780,GPS_Tracker,AWI,Polarstern,North
2022-07-11T06:00:00Z,2022,6,0,192.25,192.25,80.1897,8.7487,1008.9,4.91,-999.0,yes,yes,no,300534062836780,GPS_Tracker,AWI,Polarstern,North
2022-07-11T07:00:02Z,2022,7,0,192.2917,192.2917,80.291,9.5721,1009.0,5.14,-999.0,yes,yes,no,300534062836780,GPS_Tracker,AWI,Polarstern,North
2022-07-11T07:59:57Z,2022,8,0,192.3333,192.3333,80.3386,10.382,1009.1,4.94,-999.0,yes,yes,no,300534062836780,GPS_Tracker,AWI,Polarstern,North
2022-07-11T09:00:00Z,2022,9,0,192.375,192.375,80.3457,10.6099,1009.4,5.33,-999.0,yes,yes,no,300534062836780,GPS_Tracker,AWI,Polarstern,North
2022-07-11T10:00:02Z,2022,10,0,192.4167,192.4167,80.3366,10.6062,1009.4,5.48,-999.0,yes,yes,no,300534062836780,GPS_Tracker,AWI,Polarstern,North
2022-07-11T10:59:57Z,2022,11,0,192.4583,192.4583,80.2891,10.516,1009.6,5.36,-999.0,yes,yes,no,300534062836780,GPS_Tracker,AWI,Polarstern,North
2022-07-11T12:00:00Z,2022,12,0,192.5,192.5,80.3812,10.511,1009.9,5.19,-999.0,yes,yes,no,300534062836780,GPS_Tracker,AWI,Polarstern,North
2022-07-11T13:00:02Z,2022,13,0,192.5417,192.5417,80.459,10.2777,1009.8,5.17,-999.0,yes,yes,no,300534062836780,GPS_Tracker,AWI,Polarstern,North
2022-07-11T13:59:57Z,2022,14,0,192.5833,192.5833,80.5268,10.1155,1010.2,4.8,-999.0,yes,yes,no,300534062836780,GPS_Tracker,AWI,Polarstern,North
2022-07-11T15:00:00Z,2022,15,0,192.625,192.625,80.5251,10.1346,1010.6,4.74,-999.0,yes,yes,no,300534062836780,GPS_Tracker,AWI,Polarstern,North
2022-07-11T16:00:02Z,2022,16,0,192.6667,192.6667,80.5972,9.8549,1010.7,4.34,-999.0,yes,yes,no,300534062836780,GPS_Tracker,AWI,Polarstern,North
2022-07-11T16:59:57Z,2022,17,0,192.7083,192.7083,80.6416,9.7846,1010.8,3.93,-999.0,yes,yes,no,300534062836780,GPS_Tracker,AWI,Polarstern,North
2022-07-11T18:00:00Z,2022,18,0,192.75,192.75,80.6403,9.7747,1011.2,4.05,-999.0,yes,yes,no,300534062836780,GPS_Tracker,AWI,Polarstern,North
2022-07-11T19:00:02Z,2022,19,0,192.7917,192.7917,80.7325,9.4876,1011.5,3.58,-999.0,yes,yes,no,300534062836780,GPS_Tracker,AWI,Polarstern,North
2022-07-11T19:59:57Z,2022,20,0,192.8333,192.8333,80.7669,9.3497,1011.6,3.49,-999.0,yes,yes,no,300534062836780,GPS_Tracker,AWI,Polarstern,North
2022-07-11T21:00:00Z,2022,21,0,192.875,192.875,80.7992,9.2751,1011.6,3.51,-999.0,yes,yes,no,300534062836780,GPS_Tracker,AWI,Polarstern,North
2022-07-11T22:00:02Z,2022,22,0,192.9167,192.9167,80.8753,9.0747,1011.6,3.25,-999.0,yes,yes,no,300534062836780,GPS_Tracker,AWI,Polarstern,North
2022-07-11T22:59:57Z,2022,23,0,192.9583,192.9583,80.8872,9.0727,1011.7,3.21,-999.0,yes,yes,no,300534062836780,GPS_Tracker,AWI,Polarstern,North
2022-07-12T00:00:00Z,2022,0,0,193.0,193.0,80.953,8.8227,1011.4,3.0,-999.0,yes,yes,no,300534062836780,GPS_Tracker,AWI,Polarstern,North
2022-07-12T01:00:02Z,2022,1,0,193.0417,193.0417,81.0011,8.6401,1011.1,2.8,-999.0,yes,yes,no,300534062836780,GPS_Tracker,AWI,Polarstern,North
2022-07-12T01:59:57Z,2022,2,0,193.0833,193.0833,81.0173,8.4596,1010.7,2.71,-999.0,yes,yes,no,300534062836780,GPS_Tracker,AWI,Polarstern,North
2022-07-12T03:00:00Z,2022,3,0,193.125,193.125,81.1055,8.2908,1010.3,2.74,-999.0,yes,yes,no,300534062836780,GPS_Tracker,AWI,Polarstern,North
2022-07-12T04:00:02Z,2022,4,0,193.1667,193.1667,81.1184,8.2559,1010.0,2.68,-999.0,yes,yes,no,300534062836780,GPS_Tracker,AWI,Polarstern,North
2022-07-12T04:59:57Z,2022,5,0,193.2083,193.2083,81.1356,8.1626,1009.5,2.93,-999.0,yes,yes,no,300534062836780,GPS_Tracker,AWI,Polarstern,North
2022-07-12T06:00:00Z,2022,6,0,193.25,193.25,81.1716,8.1404,1008.8,3.19,-999.0,yes,yes,no,300534062836780,GPS_Tracker,AWI,Polarstern,North
2022-07-12T07:00:02Z,2022,7,0,193.2917,193.2917,81.2343,7.9699,1008.4,3.02,-999.0,yes,yes,no,300534062836780,GPS_Tracker,AWI,Polarstern,North
2022-07-12T07:59:57Z,2022,8,0,193.3333,193.3333,81.2324,7.8658,1007.9,3.22,-999.0,yes,yes,no,300534062836780,GPS_Tracker,AWI,Polarstern,North
2022-07-12T09:00:00Z,2022,9,0,193.375,193.375,81.2592,7.6582,1007.5,3.96,-999.0,yes,yes,no,300534062836780,GPS_Tracker,AWI,Polarstern,North
2022-07-12T10:00:02Z,2022,10,0,193.4167,193.4167,81.339,7.4585,1006.8,4.03,-999.0,yes,yes,no,300534062836780,GPS_Tracker,AWI,Polarstern,North
2022-07-12T10:59:57Z,2022,11,0,193.4583,193.4583,81.3712,7.4609,1006.7,3.74,-999.0,yes,yes,no,300534062836780,GPS_Tracker,AWI,Polarstern,North
2022-07-12T12:00:00Z,2022,12,0,193.5,193.5,81.4094,7.2666,1006.0,5.44,-999.0,yes,yes,no,300534062836780,GPS_Tracker,AWI,Polarstern,North
2022-07-12T13:00:02Z,2022,13,0,193.5417,193.5417,81.4772,7.0498,1005.5,5.83,-999.0,yes,yes,no,300534062836780,GPS_Tracker,AWI,Polarstern,North
2022-07-12T13:59:57Z,2022,14,0,193.5833,193.5833,81.4797,7.007,1005.2,5.56,-999.0,yes,yes,no,300534062836780,GPS_Tracker,AWI,Polarstern,North
2022-07-12T15:00:00Z,2022,15,0,193.625,193.625,81.4851,6.9353,1004.7,6.03,-999.0,yes,yes,no,300534062836780,GPS_Tracker,AWI,Polarstern,North
2022-07-12T16:00:02Z,2022,16,0,193.6667,193.6667,81.5401,6.868,1004.4,6.08,-999.0,yes,yes,no,300534062836780,GPS_Tracker,AWI,Polarstern,North
2022-07-12T16:59:57Z,2022,17,0,193.7083,193.7083,81.5918,6.65,1004.0,5.26,-999.0,yes,yes,no,300534062836780,GPS_Tracker,AWI,Polarstern,North
2022-07-12T18:00:00Z,2022,18,0,193.75,193.75,81.6027,6.6931,1003.6,5.34,-999.0,yes,yes,no,300534062836780,GPS_Tracker,AWI,Polarstern,North
2022-07-12T19:00:02Z,2022,19,0,193.7917,193.7917,81.6055,6.6665,1003.5,5.24,-999.0,yes,yes,no,300534062836780,GPS_Tracker,AWI,Polarstern,North
2022-07-12T19:59:57Z,2022,20,0,193.8333,193.8333,81.6053,6.5362,1003.6,4.03,-999.0,yes,yes,no,300534062836780,GPS_Tracker,AWI,Polarstern,North
2022-07-12T21:00:00Z,2022,21,0,193.875,193.875,81.6094,6.5346,1003.5,2.57,-999.0,yes,yes,no,300534062836780,GPS_Tracker,AWI,Polarstern,North
2022-07-12T22:00:02Z,2022,22,0,193.9167,193.9167,81.6146,6.5465,1003.4,1.72,-999.0,yes,yes,no,300534062836780,GPS_Tracker,AWI,Polarstern,North
2022-07-12T22:59:57Z,2022,23,0,193.9583,193.9583,81.6203,6.5716,1003.4,1.46,-999.0,yes,yes,no,300534062836780,GPS_Tracker,AWI,Polarstern,North
2022-07-13T00:00:00Z,2022,0,0,194.0,194.0,81.6253,6.6093,1003.3,2.33,-999.0,yes,yes,no,300534062836780,GPS_Tracker,AWI,Polarstern,North
2022-07-13T01:00:02Z,2022,1,0,194.0417,194.0417,81.6291,6.6546,1003.2,2.5,-999.0,yes,yes,no,300534062836780,GPS_Tracker,AWI,Polarstern,North
2022-07-13T01:59:57Z,2022,2,0,194.0833,194.0833,81.6315,6.7003,1003.1,2.45,-999.0,yes,yes,no,300534062836780,GPS_Tracker,AWI,Polarstern,North
2022-07-13T03:00:00Z,2022,3,0,194.125,194.125,81.6324,6.7447,1003.1,2.33,-999.0,yes,yes,no,300534062836780,GPS_Tracker,AWI,Polarstern,North
2022-07-13T04:00:02Z,2022,4,0,194.1667,194.1667,81.6312,6.784,1003.1,2.73,-999.0,yes,yes,no,300534062836780,GPS_Tracker,AWI,Polarstern,North
2022-07-13T04:59:57Z,2022,5,0,194.2083,194.2083,81.6281,6.8106,1003.4,3.36,-999.0,yes,yes,no,300534062836780,GPS_Tracker,AWI,Polarstern,North
2022-07-13T06:00:00Z,2022,6,0,194.25,194.25,81.6235,6.8292,1003.6,3.77,-999.0,yes,yes,no,300534062836780,GPS_Tracker,AWI,Polarstern,North
2022-07-13T07:00:02Z,2022,7,0,194.2917,194.2917,81.618,6.8392,1004.0,4.75,-999.0,yes,yes,no,300534062836780,GPS_Tracker,AWI,Polarstern,North
2022-07-13T07:59:57Z,2022,8,0,194.3333,194.3333,81.6097,6.8382,1004.7,4.26,-999.0,yes,yes,no,300534062836780,GPS_Tracker,AWI,Polarstern,North
2022-07-13T09:00:00Z,2022,9,0,194.375,194.375,81.6033,6.8343,1005.1,3.15,-999.0,yes,yes,no,300534062836780,GPS_Tracker,AWI,Polarstern,North
2022-07-13T10:00:02Z,2022,10,0,194.4167,194.4167,81.5979,6.8201,1005.5,3.28,-999.0,yes,yes,no,300534062836780,GPS_Tracker,AWI,Polarstern,North
2022-07-13T10:59:57Z,2022,11,0,194.4583,194.4583,81.5943,6.8054,1006.1,3.08,-999.0,yes,yes,no,300534062836780,GPS_Tracker,AWI,Polarstern,North
2022-07-13T12:00:00Z,2022,12,0,194.5,194.5,81.5912,6.7836,1006.6,3.52,-999.0,yes,yes,no,300534062836780,GPS_Tracker,AWI,Polarstern,North